Date,TemperatureHighF,TemperatureAvgF,TemperatureLowF,DewpointHighF,DewpointAvgF,DewpointLowF,HumidityHigh,HumidityAvg,HumidityLow,PressureMaxIn,PressureMinIn,WindSpeedMaxMPH,WindSpeedAvgMPH,GustSpeedMaxMPH,PrecipitationSumIn
2013-2-1,27.7,18.4,6.1,16.6,9.1,2.1,84,68,52,30.51,30.18,0,0,0,0.00
2013-2-2,50.7,37.5,24.1,35.4,27.2,16.1,80,67,48,30.26,30.12,2,0,7,0.00
2013-2-3,49.6,41.7,31.5,31.4,25.7,16.5,83,56,28,30.32,29.88,4,1,11,0.00
2013-2-4,53.4,39.1,23.4,34.4,28.4,20.5,90,67,47,30.03,29.83,5,0,10,0.00
2013-2-5,60.3,38.9,21.2,36.5,28.0,18.9,95,69,38,30.14,29.94,2,0,10,0.00
2013-2-6,62.6,47.9,28.2,43.6,34.4,24.1,89,62,35,30.14,29.91,7,2,16,0.00
2013-2-7,53.1,47.0,41.4,47.5,42.9,36.6,98,86,62,30.11,29.90,4,1,8,0.87
2013-2-8,48.0,37.3,30.7,36.7,29.8,26.9,89,75,57,30.38,30.12,4,1,11,0.87
2013-2-9,49.3,38.7,30.2,38.5,32.5,27.4,91,79,56,30.26,29.78,8,3,15,0.04
2013-2-10,55.6,45.6,37.6,47.4,35.9,25.0,98,71,47,29.97,29.51,11,4,27,0.07
2013-2-11,50.4,38.5,28.8,29.4,25.5,21.6,76,61,40,30.22,29.96,3,1,10,0.00
2013-2-12,43.2,32.5,23.0,30.4,24.8,19.5,90,74,51,30.22,30.00,2,0,4,0.00
2013-2-13,58.5,40.9,24.6,31.8,26.3,21.6,90,60,29,30.00,29.84,4,1,10,0.00
2013-2-14,55.4,42.2,30.9,36.6,28.4,23.6,80,59,38,30.23,29.88,2,0,8,0.00
2013-2-15,44.4,32.4,19.9,27.5,18.4,10.4,93,59,27,30.43,30.23,2,1,9,0.00
2013-2-16,36.5,29.5,17.4,25.7,21.5,15.5,94,73,53,30.36,30.10,4,1,11,0.02
2013-2-17,59.2,44.7,25.7,35.0,28.4,20.1,80,55,38,30.10,29.70,7,2,14,0.00
2013-2-18,57.6,45.0,28.2,46.9,33.0,17.4,78,63,44,30.14,29.57,8,3,21,0.00
2013-2-19,39.7,28.8,20.7,19.0,11.6,2.0,77,51,24,30.40,30.13,3,0,9,0.00
2013-2-20,27.0,22.0,16.5,14.6,8.7,4.2,66,56,49,30.42,30.20,7,1,13,0.00
2013-2-21,27.1,24.1,20.8,25.9,20.6,14.2,96,87,66,30.22,29.80,11,2,22,0.00
2013-2-22,36.1,24.3,11.7,23.7,19.1,9.1,96,81,55,30.12,29.83,2,0,8,0.14
2013-2-23,36.9,20.8,6.4,21.5,13.6,4.0,91,75,49,30.12,29.98,4,0,8,0.00
2013-2-24,52.7,32.4,11.3,29.1,21.5,8.8,91,67,36,30.06,29.93,5,1,12,0.00
2013-2-25,37.2,33.8,30.0,33.8,28.9,25.1,99,82,70,30.00,29.71,3,1,11,0.08
2013-2-26,36.7,33.0,31.1,35.5,32.0,30.1,99,96,87,29.91,29.64,2,0,6,0.12
2013-2-27,38.5,33.3,29.3,30.3,28.4,25.2,98,83,67,30.10,29.89,2,0,8,0.19
2013-2-28,34.7,31.8,28.9,28.5,26.3,24.4,85,80,72,30.25,30.09,3,0,9,0.04